| time (UTC) | temp C | wind direction | speed KPH | gust KPH | rain 1hr cm | rain 24hr cm | rain mn cm | humidity % | barometer mb |
| 20260506003448 | 17 | 169 | 4.8 | 11.3 | 0.00 | 0.03 | 0.03 | 68 | 1010.3 |
| 20260506002002 | 17 | 165 | 4.8 | 12.9 | 0.00 | 0.03 | 0.03 | 67 | 1010.2 |
| 20260506001843 | 17 | 165 | 4.8 | 12.9 | 0.00 | 0.03 | 0.03 | 67 | 1010.2 |
| 20260506000453 | 17 | 170 | 4.8 | 12.9 | 0.00 | 0.03 | 0.03 | 67 | 1010.0 |
| 20260505234851 | 17 | 171 | 6.4 | 12.9 | 0.00 | 0.03 | 0.03 | 66 | 1010.0 |
| 20260505233505 | 17 | 169 | 3.2 | 14.5 | 0.00 | 0.03 | 0.03 | 67 | 1009.6 |
| 20260505233354 | 17 | 169 | 3.2 | 14.5 | 0.00 | 0.03 | 0.03 | 67 | 1009.6 |
| 20260505231927 | 17 | 169 | 6.4 | 20.9 | 0.00 | 0.03 | 0.03 | 67 | 1009.5 |
| 20260505230532 | 17 | 169 | 4.8 | 16.1 | 0.00 | 0.03 | 0.03 | 65 | 1009.2 |
| 20260505230410 | 17 | 169 | 4.8 | 16.1 | 0.00 | 0.03 | 0.03 | 65 | 1009.2 |
| 20260505224949 | 18 | 172 | 8.0 | 20.9 | 0.03 | 0.03 | 0.03 | 64 | 1009.1 |
| 20260505223407 | 18 | 170 | 4.8 | 19.3 | 0.03 | 0.03 | 0.03 | 62 | 1009.2 |
| 20260505221953 | 19 | 171 | 6.4 | 22.5 | 0.03 | 0.03 | 0.03 | 61 | 1008.9 |
| 20260505220414 | 19 | 166 | 6.4 | 22.5 | 0.03 | 0.03 | 0.03 | 61 | 1009.0 |
| 20260505214936 | 20 | 141 | 8.0 | 17.7 | 0.00 | 0.00 | 0.00 | 60 | 1009.0 |
| 20260505214833 | 20 | 141 | 8.0 | 17.7 | 0.00 | 0.00 | 0.00 | 60 | 1009.0 |
| 20260505213514 | 20 | 141 | 4.8 | 17.7 | 0.00 | 0.00 | 0.00 | 60 | 1008.9 |
| 20260505213322 | 20 | 141 | 4.8 | 17.7 | 0.00 | 0.00 | 0.00 | 60 | 1008.9 |
| 20260505211914 | 19 | 140 | 6.4 | 22.5 | 0.00 | 0.00 | 0.00 | 61 | 1008.8 |
| 20260505210436 | 20 | 126 | 11.3 | 22.5 | 0.00 | 0.00 | 0.00 | 60 | 1008.8 |
| 20260505204931 | 20 | 135 | 6.4 | 19.3 | 0.00 | 0.00 | 0.00 | 60 | 1008.9 |
| 20260505203354 | 21 | 137 | 6.4 | 17.7 | 0.00 | 0.00 | 0.00 | 58 | 1008.9 |
| 20260505202016 | 21 | 139 | 6.4 | 25.7 | 0.00 | 0.00 | 0.00 | 58 | 1008.9 |
| 20260505201825 | 21 | 139 | 6.4 | 25.7 | 0.00 | 0.00 | 0.00 | 58 | 1008.9 |
| 20260505200441 | 22 | 139 | 6.4 | 22.5 | 0.00 | 0.00 | 0.00 | 55 | 1009.0 |
| 20260505200335 | 22 | 139 | 6.4 | 22.5 | 0.00 | 0.00 | 0.00 | 55 | 1009.0 |
| 20260505194953 | 22 | 141 | 4.8 | 12.9 | 0.00 | 0.00 | 0.00 | 57 | 1009.1 |
| 20260505194823 | 22 | 141 | 4.8 | 12.9 | 0.00 | 0.00 | 0.00 | 57 | 1009.1 |
| 20260505193428 | 22 | 141 | 6.4 | 14.5 | 0.00 | 0.00 | 0.00 | 58 | 1009.2 |
| 20260505191922 | 21 | 141 | 4.8 | 17.7 | 0.00 | 0.00 | 0.00 | 58 | 1009.6 |
| 20260505190422 | 21 | 143 | 4.8 | 11.3 | 0.00 | 0.00 | 0.00 | 60 | 1009.7 |
| 20260505184914 | 21 | 143 | 6.4 | 14.5 | 0.00 | 0.00 | 0.00 | 60 | 1010.0 |
| 20260505183521 | 21 | 143 | 6.4 | 12.9 | 0.00 | 0.00 | 0.00 | 61 | 1010.1 |
| 20260505183413 | 21 | 143 | 6.4 | 12.9 | 0.00 | 0.00 | 0.00 | 61 | 1010.1 |
| 20260505181936 | 21 | 143 | 4.8 | 17.7 | 0.00 | 0.00 | 0.00 | 62 | 1010.2 |
| 20260505181833 | 21 | 143 | 4.8 | 17.7 | 0.00 | 0.00 | 0.00 | 62 | 1010.2 |
| 20260505180427 | 21 | 142 | 4.8 | 12.9 | 0.00 | 0.00 | 0.00 | 64 | 1010.2 |
| 20260505174914 | 20 | 141 | 3.2 | 12.9 | 0.00 | 0.00 | 0.00 | 63 | 1010.4 |
| 20260505173400 | 21 | 141 | 4.8 | 14.5 | 0.00 | 0.00 | 0.00 | 63 | 1010.6 |
| 20260505172020 | 21 | 142 | 3.2 | 12.9 | 0.00 | 0.00 | 0.00 | 60 | 1010.6 |
| 20260505171835 | 21 | 142 | 3.2 | 12.9 | 0.00 | 0.00 | 0.00 | 60 | 1010.6 |
| 20260505170414 | 21 | 142 | 6.4 | 14.5 | 0.00 | 0.00 | 0.00 | 59 | 1010.6 |
| 20260505164925 | 21 | 141 | 3.2 | 11.3 | 0.00 | 0.00 | 0.00 | 59 | 1010.5 |
| 20260505163510 | 22 | 141 | 3.2 | 14.5 | 0.00 | 0.00 | 0.00 | 59 | 1010.9 |
| 20260505163402 | 22 | 141 | 3.2 | 14.5 | 0.00 | 0.00 | 0.00 | 59 | 1010.9 |
| 20260505162003 | 21 | 141 | 6.4 | 14.5 | 0.00 | 0.00 | 0.00 | 57 | 1011.0 |
| 20260505161851 | 21 | 141 | 6.4 | 14.5 | 0.00 | 0.00 | 0.00 | 57 | 1011.0 |
| 20260505160420 | 22 | 141 | 3.2 | 11.3 | 0.00 | 0.00 | 0.00 | 59 | 1011.0 |
| 20260505153348 | 21 | 141 | 1.6 | 12.9 | 0.00 | 0.00 | 0.00 | 60 | 1011.2 |
| 20260505152028 | 20 | 141 | 4.8 | 11.3 | 0.00 | 0.00 | 0.00 | 60 | 1011.4 |
| 20260505151906 | 20 | 141 | 4.8 | 11.3 | 0.00 | 0.00 | 0.00 | 60 | 1011.4 |
| 20260505150532 | 20 | 141 | 4.8 | 11.3 | 0.00 | 0.00 | 0.00 | 62 | 1011.7 |
| 20260505150337 | 20 | 141 | 4.8 | 11.3 | 0.00 | 0.00 | 0.00 | 62 | 1011.7 |
| 20260505140405 | 19 | 139 | 3.2 | 8.0 | 0.00 | 0.00 | 0.00 | 63 | 1011.3 |
| 20260505124950 | 17 | 140 | 1.6 | 8.0 | 0.00 | 0.00 | 0.00 | 72 | 1011.2 |
| 20260505123507 | 16 | 140 | 3.2 | 6.4 | 0.00 | 0.00 | 0.00 | 74 | 1011.0 |
| 20260505123350 | 16 | 140 | 3.2 | 6.4 | 0.00 | 0.00 | 0.00 | 74 | 1011.0 |
| 20260505121930 | 15 | 140 | 1.6 | 11.3 | 0.00 | 0.00 | 0.00 | 78 | 1011.0 |
| 20260505120409 | 14 | 140 | 0.0 | 4.8 | 0.00 | 0.00 | 0.00 | 82 | 1011.2 |
| 20260505114856 | 13 | 140 | 0.0 | 1.6 | 0.00 | 0.00 | 0.00 | 86 | 1011.3 |
| 20260505113432 | 12 | 140 | 0.0 | 3.2 | 0.00 | 0.00 | 0.00 | 89 | 1011.3 |
| 20260505111945 | 11 | 140 | 0.0 | 1.6 | 0.00 | 0.00 | 0.00 | 90 | 1011.2 |
| 20260505110456 | 11 | 0 | 0.0 | 1.6 | 0.00 | 0.00 | 0.00 | 90 | 1011.2 |
| 20260505101948 | 10 | 0 | 0.0 | 1.6 | 0.00 | 0.00 | 0.00 | 89 | 1010.6 |
| 20260505101846 | 10 | 0 | 0.0 | 1.6 | 0.00 | 0.00 | 0.00 | 89 | 1010.6 |
| 20260505100457 | 10 | 0 | 0.0 | 1.6 | 0.00 | 0.00 | 0.00 | 89 | 1010.3 |
| 20260505100355 | 10 | 0 | 0.0 | 1.6 | 0.00 | 0.00 | 0.00 | 89 | 1010.3 |
| 20260505095002 | 10 | 0 | 0.0 | 3.2 | 0.00 | 0.00 | 0.00 | 89 | 1010.2 |
| 20260505093435 | 10 | 0 | 0.0 | 1.6 | 0.00 | 0.00 | 0.00 | 89 | 1010.3 |
| 20260505091944 | 10 | 0 | 0.0 | 1.6 | 0.00 | 0.00 | 0.00 | 89 | 1010.3 |
| 20260505091831 | 10 | 0 | 0.0 | 1.6 | 0.00 | 0.00 | 0.00 | 89 | 1010.3 |
| 20260505090446 | 10 | 0 | 0.0 | 1.6 | 0.00 | 0.00 | 0.00 | 88 | 1010.4 |
| 20260505090326 | 10 | 0 | 0.0 | 1.6 | 0.00 | 0.00 | 0.00 | 88 | 1010.4 |
| 20260505085000 | 10 | 140 | 0.0 | 3.2 | 0.00 | 0.00 | 0.00 | 88 | 1010.3 |
| 20260505084843 | 10 | 140 | 0.0 | 3.2 | 0.00 | 0.00 | 0.00 | 88 | 1010.3 |
| 20260505083502 | 11 | 140 | 0.0 | 3.2 | 0.00 | 0.00 | 0.00 | 88 | 1010.4 |
| 20260505083336 | 11 | 140 | 0.0 | 3.2 | 0.00 | 0.00 | 0.00 | 88 | 1010.4 |
| 20260505081928 | 11 | 140 | 0.0 | 3.2 | 0.00 | 0.00 | 0.00 | 88 | 1010.3 |
| 20260505080539 | 11 | 140 | 0.0 | 3.2 | 0.00 | 0.00 | 0.00 | 88 | 1010.3 |
| 20260505080411 | 11 | 140 | 0.0 | 3.2 | 0.00 | 0.00 | 0.00 | 88 | 1010.3 |
| 20260505074915 | 11 | 0 | 0.0 | 3.2 | 0.00 | 0.00 | 0.00 | 87 | 1010.4 |
| 20260505073511 | 11 | 140 | 0.0 | 4.8 | 0.00 | 0.00 | 0.00 | 87 | 1010.3 |
| 20260505073359 | 11 | 140 | 0.0 | 4.8 | 0.00 | 0.00 | 0.00 | 87 | 1010.3 |
| 20260505071855 | 11 | 140 | 1.6 | 3.2 | 0.00 | 0.00 | 0.00 | 87 | 1010.4 |
| 20260505070352 | 11 | 140 | 0.0 | 3.2 | 0.00 | 0.00 | 0.00 | 86 | 1010.3 |
| 20260505065013 | 11 | 140 | 1.6 | 3.2 | 0.00 | 0.00 | 0.00 | 86 | 1010.4 |
| 20260505063436 | 11 | 140 | 1.6 | 3.2 | 0.00 | 0.00 | 0.00 | 86 | 1010.4 |
| 20260505063319 | 11 | 140 | 1.6 | 3.2 | 0.00 | 0.00 | 0.00 | 86 | 1010.4 |
| 20260505061928 | 11 | 140 | 1.6 | 4.8 | 0.00 | 0.00 | 0.00 | 85 | 1010.6 |
| 20260505060357 | 11 | 140 | 0.0 | 3.2 | 0.00 | 0.00 | 0.00 | 84 | 1010.6 |
| 20260505055025 | 11 | 140 | 0.0 | 3.2 | 0.00 | 0.00 | 0.00 | 84 | 1010.7 |
| 20260505054828 | 11 | 140 | 0.0 | 3.2 | 0.00 | 0.00 | 0.00 | 84 | 1010.7 |
| 20260505053511 | 11 | 140 | 0.0 | 3.2 | 0.00 | 0.00 | 0.00 | 82 | 1010.8 |
| 20260505051854 | 12 | 140 | 1.6 | 4.8 | 0.00 | 0.00 | 0.00 | 81 | 1010.8 |
| 20260505050524 | 12 | 140 | 0.0 | 3.2 | 0.00 | 0.00 | 0.00 | 80 | 1011.0 |
| 20260505050333 | 12 | 140 | 0.0 | 3.2 | 0.00 | 0.00 | 0.00 | 80 | 1011.0 |
| 20260505040442 | 12 | 140 | 1.6 | 8.0 | 0.00 | 0.00 | 0.00 | 75 | 1011.3 |
| 20260505035005 | 12 | 0 | 0.0 | 1.6 | 0.00 | 0.00 | 0.00 | 75 | 1011.2 |
| 20260505033428 | 12 | 140 | 0.0 | 4.8 | 0.00 | 0.00 | 0.00 | 76 | 1011.2 |
| 20260505031857 | 12 | 140 | 1.6 | 6.4 | 0.00 | 0.00 | 0.00 | 76 | 1011.4 |
| 20260505030517 | 12 | 140 | 1.6 | 6.4 | 0.00 | 0.00 | 0.00 | 77 | 1011.4 |
| 20260505030324 | 12 | 140 | 1.6 | 6.4 | 0.00 | 0.00 | 0.00 | 77 | 1011.4 |
| 20260505024905 | 12 | 0 | 0.0 | 4.8 | 0.00 | 0.00 | 0.00 | 76 | 1011.5 |
| 20260505023347 | 12 | 0 | 0.0 | 3.2 | 0.00 | 0.00 | 0.00 | 76 | 1011.5 |
| 20260505021903 | 12 | 140 | 1.6 | 4.8 | 0.00 | 0.00 | 0.00 | 75 | 1011.5 |
| 20260505020317 | 12 | 140 | 0.0 | 4.8 | 0.00 | 0.00 | 0.00 | 74 | 1011.5 |
| 20260505014917 | 13 | 140 | 0.0 | 6.4 | 0.00 | 0.00 | 0.00 | 73 | 1011.4 |
| 20260505013422 | 13 | 140 | 0.0 | 3.2 | 0.00 | 0.00 | 0.00 | 71 | 1011.4 |
| 20260505011939 | 13 | 140 | 0.0 | 8.0 | 0.00 | 0.00 | 0.00 | 70 | 1011.2 |
| 20260505011824 | 13 | 140 | 0.0 | 8.0 | 0.00 | 0.00 | 0.00 | 70 | 1011.2 |
| 20260505010534 | 13 | 140 | 1.6 | 8.0 | 0.00 | 0.00 | 0.00 | 69 | 1011.0 |
| 20260505010343 | 13 | 140 | 1.6 | 8.0 | 0.00 | 0.00 | 0.00 | 69 | 1011.0 |
| 20260505004917 | 13 | 140 | 3.2 | 8.0 | 0.00 | 0.00 | 0.00 | 68 | 1010.9 |